This is the latest recevied weather packets stored in our database for station/object YO6IKB-10. If no packets are shown the sender has not sent any weather packets the latest 10 day(s).
| Time | Temp. | Humidity | Pressure | Rain* | Wind** | Luminosity | Snow |
|---|---|---|---|---|---|---|---|
| 1777626723 | 12.22° C | 46% | 1020.6 hPa | 0 mm | - | - | - |
| 1777626423 | 11.11° C | 48% | 1020.5 hPa | 0 mm | - | - | - |
| 1777626122 | 10.56° C | 46% | 1020.6 hPa | 0 mm | - | - | - |
| 1777625822 | 10.56° C | 44% | 1020.6 hPa | 0 mm | - | - | - |
| 1777625522 | 11.11° C | 45% | 1020.7 hPa | 0 mm | - | - | - |
| 1777625221 | 11.67° C | 45% | 1020.6 hPa | 0 mm | - | - | - |
| 1777624921 | 11.11° C | 46% | 1020.6 hPa | 0 mm | - | - | - |
| 1777624621 | 11.11° C | 46% | 1020.7 hPa | 0 mm | - | - | - |
| 1777624321 | 11.67° C | 45% | 1020.7 hPa | 0 mm | - | - | - |
| 1777624020 | 11.67° C | 50% | 1020.7 hPa | 0 mm | - | - | - |
| 1777623720 | 11.11° C | 53% | 1020.8 hPa | 0 mm | - | - | - |
| 1777623420 | 10° C | 53% | 1020.8 hPa | 0 mm | - | - | - |
| 1777623119 | 9.44° C | 45% | 1020.8 hPa | 0 mm | - | - | - |
| 1777622819 | 10.56° C | 45% | 1020.8 hPa | 0 mm | - | - | - |
| 1777622519 | 10.56° C | 50% | 1020.8 hPa | 0 mm | - | - | - |
| 1777622219 | 10.56° C | 46% | 1020.7 hPa | 0 mm | - | - | - |
| 1777621918 | 11.11° C | 51% | 1020.8 hPa | 0 mm | - | - | - |
| 1777621618 | 11.11° C | 47% | 1020.9 hPa | 0 mm | - | - | - |
| 1777621318 | 11.11° C | 47% | 1020.9 hPa | 0 mm | - | - | - |
| 1777621017 | 11.67° C | 53% | 1020.9 hPa | 0 mm | - | - | - |
| 1777620717 | 11.11° C | 50% | 1020.9 hPa | 0 mm | - | - | - |
| 1777620417 | 11.11° C | 53% | 1020.9 hPa | 0 mm | - | - | - |
| 1777620116 | 11.67° C | 55% | 1020.9 hPa | 0 mm | - | - | - |
| 1777619816 | 11.11° C | 58% | 1020.9 hPa | 0 mm | - | - | - |
| 1777619516 | 10.56° C | 60% | 1020.9 hPa | 0 mm | - | - | - |
* Rain latest hour (hover to see other rain measurements)
** Current wind speed in m/s (hover to see current wind gust speed)